Location: Carabito
(9.8355°N, 67.9249°W)
Time: 21:55:40
(UTC+00:00)

CZ-3 R/B - Pass Details

Date: 23 May 2024
Orbit: 492 x 10074 km, 28.3° (Epoch: 24 June)

Event Time Altitude Azimuth Distance (km) Brightness Sun altitude
Rises 07:15:01 0° 290° (WNW) 14,780 7.3 -39.0°
Reaches altitude 10° 07:33:49 10° 295° (WNW) 12,467 6.9 -35.2°
Maximum altitude 08:17:19 57° 11° (N) 3,414 4.3 -26.0°
Drops below altitude 10° 08:27:34 10° 90° (E) 3,694 5.3 -23.8°
Sets 08:29:35 0° 95° (E) 4,230 5.7 -23.4°
